Regional Weather Roundup
Issued by NWS

Home | Current Version | Previous Version | Text Only | Print | Product List | Glossary On
Versions: 1 2 3 4 5 6 7 8 9 10 11 12 13 14 15 16 17 18 19 20 21 22 23 24 25 26 27 28 29 30 31 32 33 34 35 36 37 38 39 40 41 42 43 44 45 46 47 48 49 50
000
ASUS44 KOUN 021900
RWROK

WEATHER ROUNDUP FOR OKLAHOMA
NATIONAL WEATHER SERVICE NORMAN OK
100 PM CST MON MAR 02 2015

NOTE: "FAIR" INDICATES FEW OR NO CLOUDS BELOW 12,000 FEET WITH NO
      SIGNIFICANT WEATHER AND/OR OBSTRUCTIONS TO VISIBILITY.

OKZ001>007-009>012-014-015-017-022000-
NORTHWEST OKLAHOMA AND THE PANHANDLE

CITY           SKY/WX    TMP DP  RH WIND       PRES   REMARKS
GAGE           PTSUNNY   38  22  52 S9        30.22F WCI  31
GUYMON         CLOUDY    33  28  81 S16       30.12F HAZE    WCI  23
ENID/WOODRING  CLOUDY    36  25  64 E6        30.30F WCI  31
$$

OKZ016-021>023-033>039-044-045-022000-
SOUTHWEST OKLAHOMA

CITY           SKY/WX    TMP DP  RH WIND       PRES   REMARKS
LAWTON/REGL    CLOUDY    34  26  72 CALM      30.34F
FREDERICK      CLOUDY    34  25  69 SW6       30.31F HAZE    WCI  29
CLINTON        CLOUDY    33  23  66 S6        30.30F WCI  28
HOBART         CLOUDY    32  25  75 S6        30.32F WCI  26
ALTUS AFB      CLOUDY    34  27  75 VRB1      30.32F
$$

OKZ018>020-024>031-022000-
CENTRAL OKLAHOMA

CITY           SKY/WX    TMP DP  RH WIND       PRES   REMARKS
OKLAHOMA CITY  CLOUDY    34  26  72 SE6       30.30F WCI  29
OKC/WILEY POST CLOUDY    34  26  72 S5        30.31F WCI  30
STILLWATER     CLOUDY    33  25  72 S7        30.33F WCI  27
GUTHRIE        CLOUDY    33  25  72 CALM      30.31F
$$

OKZ008-013-054>072-022000-
NORTHEAST OKLAHOMA

CITY           SKY/WX    TMP DP  RH WIND       PRES   REMARKS
TULSA          CLOUDY    35  30  82 SE7       30.34F WCI  29
TULSA/JONES    CLOUDY    34  28  79 CALM      30.35F
PONCA CITY     CLOUDY    36  25  64 SE10      30.32F WCI  28
BARTLESVILLE   CLOUDY    34  26  72 SE8       30.36F WCI  27
MUSKOGEE       CLOUDY    39  32  76 SE12      30.35F WCI  32
$$

OKZ032-040>043-046>053-073>077-022000-
SOUTH CENTRAL/SOUTHEAST OKLAHOMA

CITY           SKY/WX    TMP DP  RH WIND       PRES   REMARKS
MCALESTER      CLOUDY    38  35  89 VRB5      30.32F FOG     WCI  34
$$



USA.gov is the U.S. government's official web portal to all federal, state and local government web resources and services.